Satellite-Ground Cal/Val Region Overpasses Predictions

Prediction of Satellite NPP Overpassing Cal/Val Region: PacNW

Region Location: (Latitude: 10.00, Longitude: 139.50) to (Latitude: 22.70, Longitude: 165.60).

Table of predicted overpasses for the next 14.0 days since TLE Epoch: 12/27/2020
Interval Starting Time Starting Location Ending Time Ending Location
1 12/27/2020 02:19:59 ( 10.54, 164.56) 12/27/2020 02:23:26 ( 22.69, 161.67)
2 12/27/2020 14:51:44 ( 22.65, 161.90) 12/27/2020 14:55:19 ( 10.02, 158.90)
3 12/28/2020 03:42:18 ( 10.03, 144.06) 12/28/2020 03:45:53 ( 22.65, 141.06)
4 12/28/2020 14:33:56 ( 18.30, 165.59) 12/28/2020 14:36:17 ( 10.01, 163.65)
5 12/28/2020 16:14:11 ( 22.69, 141.29) 12/28/2020 16:16:17 ( 15.30, 139.50)
6 12/29/2020 03:23:17 ( 10.04, 148.81) 12/29/2020 03:26:52 ( 22.66, 145.81)
7 12/29/2020 15:55:10 ( 22.68, 146.04) 12/29/2020 15:58:45 ( 10.06, 143.04)
8 12/30/2020 03:04:15 ( 10.05, 153.56) 12/30/2020 03:07:50 ( 22.67, 150.56)
9 12/30/2020 15:36:08 ( 22.67, 150.80) 12/30/2020 15:39:43 ( 10.05, 147.80)
10 12/31/2020 02:45:13 ( 10.00, 158.33) 12/31/2020 02:48:49 ( 22.68, 155.32)
11 12/31/2020 15:17:07 ( 22.65, 155.55) 12/31/2020 15:20:42 ( 10.03, 152.55)
12 01/01/2021 02:26:11 ( 10.01, 163.08) 01/01/2021 02:29:47 ( 22.70, 160.07)
13 01/01/2021 14:58:05 ( 22.64, 160.30) 01/01/2021 15:01:40 ( 10.02, 157.30)
14 01/02/2021 02:09:53 ( 19.60, 165.59) 01/02/2021 02:10:45 ( 22.65, 164.84)
15 01/02/2021 03:48:40 ( 10.03, 142.46) 01/02/2021 03:52:12 ( 22.48, 139.51)
16 01/02/2021 14:39:03 ( 22.69, 165.07) 01/02/2021 14:42:39 ( 10.01, 162.06)
17 01/02/2021 16:20:33 ( 22.68, 139.70) 01/02/2021 16:20:46 ( 21.92, 139.51)
18 01/03/2021 03:29:38 ( 10.04, 147.22) 01/03/2021 03:33:13 ( 22.67, 144.21)
19 01/03/2021 16:01:31 ( 22.67, 144.45) 01/03/2021 16:05:06 ( 10.05, 141.45)
20 01/04/2021 03:10:37 ( 10.06, 151.97) 01/04/2021 03:14:12 ( 22.68, 148.97)
21 01/04/2021 15:42:30 ( 22.66, 149.20) 01/04/2021 15:46:05 ( 10.04, 146.20)
22 01/05/2021 02:51:35 ( 10.01, 156.73) 01/05/2021 02:55:11 ( 22.70, 153.72)
23 01/05/2021 15:23:28 ( 22.65, 153.95) 01/05/2021 15:27:03 ( 10.03, 150.95)
24 01/06/2021 02:32:33 ( 10.03, 161.49) 01/06/2021 02:36:08 ( 22.65, 158.49)
25 01/06/2021 15:04:26 ( 22.69, 158.72) 01/06/2021 15:08:02 ( 10.01, 155.71)
26 01/07/2021 02:14:20 ( 12.86, 165.59) 01/07/2021 02:17:07 ( 22.66, 163.24)
27 01/07/2021 03:55:02 ( 10.05, 140.86) 01/07/2021 03:56:42 ( 15.92, 139.50)
28 01/07/2021 14:45:24 ( 22.68, 163.47) 01/07/2021 14:49:00 ( 10.00, 160.46)
29 01/08/2021 03:35:59 ( 10.00, 145.63) 01/08/2021 03:39:35 ( 22.68, 142.62)
30 01/08/2021 14:29:31 ( 11.63, 165.59) 01/08/2021 14:29:58 ( 10.05, 165.23)
31 01/08/2021 16:07:53 ( 22.66, 142.85) 01/08/2021 16:11:28 ( 10.04, 139.85)
32 01/09/2021 03:16:58 ( 10.02, 150.38) 01/09/2021 03:20:34 ( 22.70, 147.37)
